Starlink 32270

operational
NORAD ID: 60364 Int'l Des: 2024-138 Owner: SPXS Country: US Constellation: starlink
LEOCIRCULAR

About Starlink 32270

Description loading...

Live Position

Loading 3D Globe...

Upcoming Passes

Altitude History

Altitude vs Time

uPlot chart will show altitude changes over time

Two-Line Element Set

1 60364U 24138K 25305.98371660 .00000615 00000-0 32897-4 0 9997
2 60364 53.1590 182.9008 0001344 90.2505 269.8650 15.30184251 70974
Epoch: Nov 1, 2025 • Age: 33 hours

Current Status

Altitude 478.9 km
Velocity 7.63 km/s
Sub-Earth Point -12.41°S, 2.66°W
Launch Date Aug 4, 2024
Age 1.2 years
Type internet

Technical Details

Classification Payload
Mass 730.00 kg
Dry Mass 700.00 kg
Total Mass 730.00 kg
Length 0.30 m
Diameter 4.10 m
Span 29.00 m
Shape Box + pan
Manufacturer SPXS
Bus Type Starlink V2M
Phase Status In Orbit
Owner/State SPXS/US

Large Constellations

Loading constellations...